When you browse on this site, cookies collect data to enhance your experience and personalize the content and advertising you see.
Visit our Privacy Policy to learn more. By continuing to use the site, you agree to this use of cookies and data.
  • In Spain
  • List of Countries
  • For 7 days
  • Water Temperature
  • Weather Map
  • Weather Widgets
  • user-avatar
    Login

    Hourly Weather Chelmsford

    Today, 17 February, Monday

    Time Temperature Precipitation Wind Pressure Humidity
    00:00 +2°C° 0 mm 8 mps 750 mmHg 70%
    01:00 +2°C° 0 mm 8 mps 750 mmHg 69%
    02:00 +3°C° 0 mm 9 mps 750 mmHg 68%
    03:00 +3°C° 0 mm 9 mps 751 mmHg 67%
    04:00 +3°C° 0 mm 9 mps 751 mmHg 69%
    05:00 +4°C° 0 mm 8 mps 751 mmHg 70%
    06:00 +4°C° 0 mm 7 mps 751 mmHg 77%
    07:00 +4°C° 0.1 mm 8 mps 751 mmHg 75%
    08:00 +4°C° 0.1 mm 8 mps 751 mmHg 72%
    09:00 +5°C° 0.1 mm 8 mps 751 mmHg 69%
    10:00 +5°C° 0 mm 8 mps 752 mmHg 71%
    11:00 +5°C° 0 mm 8 mps 752 mmHg 72%
    12:00 +5°C° 0 mm 9 mps 752 mmHg 74%
    13:00 +6°C° 0 mm 8 mps 752 mmHg 71%
    14:00 +7°C° 0 mm 8 mps 753 mmHg 69%
    15:00 +9°C° 0 mm 8 mps 753 mmHg 67%
    16:00 +7°C° 0 mm 8 mps 754 mmHg 69%
    17:00 +6°C° 0 mm 8 mps 755 mmHg 72%
    18:00 +5°C° 0 mm 7 mps 755 mmHg 74%
    19:00 +5°C° 0 mm 7 mps 756 mmHg 74%
    20:00 +4°C° 0 mm 7 mps 757 mmHg 73%
    21:00 +3°C° 0 mm 7 mps 758 mmHg 73%
    22:00 +3°C° 0 mm 7 mps 758 mmHg 73%
    23:00 +3°C° 0 mm 7 mps 759 mmHg 72%

    Tomorrow, 18 February, Tuesday

    Time Temperature Precipitation Wind Pressure Humidity
    00:00 +2°C° 0 mm 7 mps 760 mmHg 72%
    01:00 +2°C° 0 mm 7 mps 760 mmHg 72%
    02:00 +2°C° 0 mm 7 mps 760 mmHg 73%
    03:00 +2°C° 0 mm 7 mps 761 mmHg 74%
    04:00 +2°C° 0 mm 7 mps 761 mmHg 76%
    05:00 +2°C° 0 mm 6 mps 761 mmHg 77%
    06:00 +1°C° 0 mm 6 mps 761 mmHg 79%
    07:00 +2°C° 0 mm 7 mps 761 mmHg 78%
    08:00 +3°C° 0 mm 7 mps 761 mmHg 77%
    09:00 +3°C° 0 mm 7 mps 762 mmHg 75%
    10:00 +4°C° 0 mm 8 mps 761 mmHg 72%
    11:00 +5°C° 0 mm 8 mps 761 mmHg 69%
    12:00 +6°C° 0 mm 9 mps 761 mmHg 65%
    13:00 +6°C° 0.2 mm 9 mps 760 mmHg 71%
    14:00 +5°C° 0.2 mm 8 mps 760 mmHg 77%
    15:00 +5°C° 0.2 mm 8 mps 759 mmHg 83%
    16:00 +5°C° 0 mm 8 mps 759 mmHg 81%
    17:00 +5°C° 0 mm 8 mps 758 mmHg 80%
    18:00 +5°C° 0 mm 7 mps 758 mmHg 79%
    19:00 +4°C° 0.3 mm 8 mps 757 mmHg 80%
    20:00 +4°C° 0.3 mm 8 mps 757 mmHg 82%
    21:00 +4°C° 0.3 mm 8 mps 757 mmHg 84%
    22:00 +2°C° 0.1 mm 8 mps 757 mmHg 82%
    23:00 +2°C° 0.1 mm 7 mps 758 mmHg 79%

    Day after tomorrow, 19 February, Wednesday

    Time Temperature Precipitation Wind Pressure Humidity
    00:00 0°C° 0.1 mm 7 mps 758 mmHg 76%
    01:00 0°C° 0 mm 7 mps 758 mmHg 77%
    02:00 0°C° 0 mm 7 mps 759 mmHg 78%
    03:00 0°C° 0 mm 7 mps 760 mmHg 78%
    04:00 -1°C° 0 mm 7 mps 760 mmHg 79%
    05:00 -1°C° 0 mm 6 mps 760 mmHg 79%
    06:00 -1°C° 0 mm 6 mps 760 mmHg 79%
    07:00 -1°C° 0 mm 6 mps 761 mmHg 78%
    08:00 +1°C° 0 mm 6 mps 761 mmHg 77%
    09:00 +1°C° 0 mm 6 mps 762 mmHg 76%
    10:00 +2°C° 0 mm 6 mps 762 mmHg 72%
    11:00 +3°C° 0 mm 6 mps 762 mmHg 68%
    12:00 +4°C° 0 mm 6 mps 762 mmHg 65%
    13:00 +4°C° 0 mm 6 mps 762 mmHg 67%
    14:00 +5°C° 0 mm 6 mps 761 mmHg 70%
    15:00 +5°C° 0 mm 6 mps 761 mmHg 73%
    16:00 +5°C° 0.1 mm 6 mps 760 mmHg 78%
    17:00 +5°C° 0.1 mm 6 mps 760 mmHg 83%
    18:00 +4°C° 0.1 mm 6 mps 759 mmHg 89%
    19:00 +5°C° 0.2 mm 6 mps 759 mmHg 88%
    20:00 +5°C° 0.2 mm 6 mps 758 mmHg 88%
    21:00 +6°C° 0.2 mm 7 mps 758 mmHg 88%
    22:00 +6°C° 0 mm 7 mps 757 mmHg 86%
    23:00 +6°C° 0 mm 7 mps 757 mmHg 84%

    20 February, Thursday

    Time Temperature Precipitation Wind Pressure Humidity
    00:00 +6°C° 0 mm 7 mps 756 mmHg 83%
    01:00 +6°C° 0 mm 7 mps 756 mmHg 83%
    02:00 +6°C° 0 mm 7 mps 755 mmHg 83%
    03:00 +6°C° 0 mm 7 mps 754 mmHg 83%
    04:00 +6°C° 0 mm 7 mps 754 mmHg 83%
    05:00 +6°C° 0 mm 7 mps 753 mmHg 83%
    06:00 +6°C° 0 mm 8 mps 753 mmHg 83%
    07:00 +6°C° 0 mm 8 mps 752 mmHg 82%
    08:00 +6°C° 0 mm 8 mps 752 mmHg 81%
    09:00 +7°C° 0 mm 9 mps 752 mmHg 80%
    10:00 +7°C° 0.1 mm 9 mps 751 mmHg 81%
    11:00 +7°C° 0.1 mm 10 mps 751 mmHg 81%
    12:00 +7°C° 0.1 mm 11 mps 750 mmHg 82%
    13:00 +8°C° 0.1 mm 10 mps 750 mmHg 78%
    14:00 +8°C° 0.1 mm 10 mps 750 mmHg 74%
    15:00 +8°C° 0.1 mm 9 mps 750 mmHg 71%
    16:00 +6°C° 0.1 mm 9 mps 751 mmHg 74%
    17:00 +5°C° 0.1 mm 9 mps 753 mmHg 77%
    18:00 +2°C° 0.1 mm 9 mps 754 mmHg 79%
    19:00 +2°C° 0.1 mm 8 mps 756 mmHg 76%
    20:00 +1°C° 0.1 mm 8 mps 758 mmHg 73%
    21:00 +2°C° 0.1 mm 7 mps 759 mmHg 69%
    22:00 0°C° 0 mm 7 mps 760 mmHg 70%
    23:00 0°C° 0 mm 7 mps 761 mmHg 71%

    21 February, Friday

    Time Temperature Precipitation Wind Pressure Humidity
    00:00 0°C° 0 mm 7 mps 762 mmHg 72%
    01:00 +1°C° 0 mm 6 mps 763 mmHg 73%
    02:00 +1°C° 0 mm 6 mps 763 mmHg 74%
    03:00 -1°C° 0 mm 6 mps 764 mmHg 74%
    04:00 -1°C° 0 mm 6 mps 764 mmHg 75%
    05:00 +1°C° 0 mm 6 mps 764 mmHg 76%
    06:00 +1°C° 0 mm 6 mps 765 mmHg 77%
    13:00 +6°C° 0 mm 9 mps 764 mmHg 68%
    14:00 +6°C° 0 mm 9 mps 764 mmHg 69%
    15:00 +6°C° 0 mm 9 mps 763 mmHg 70%
    16:00 +6°C° 0 mm 9 mps 763 mmHg 71%
    17:00 +6°C° 0 mm 9 mps 763 mmHg 72%
    18:00 +6°C° 0 mm 10 mps 762 mmHg 73%
    19:00 +6°C° 0 mm 10 mps 762 mmHg 75%
    20:00 +6°C° 0 mm 10 mps 762 mmHg 77%
    21:00 +6°C° 0 mm 11 mps 762 mmHg 79%
    22:00 +7°C° 0 mm 11 mps 762 mmHg 80%
    23:00 +7°C° 0 mm 11 mps 761 mmHg 81%

    22 February, Saturday

    Time Temperature Precipitation Wind Pressure Humidity
    00:00 +8°C° 0 mm 11 mps 761 mmHg 82%
    01:00 +8°C° 0 mm 10 mps 761 mmHg 83%
    02:00 +8°C° 0 mm 10 mps 761 mmHg 84%
    03:00 +8°C° 0 mm 10 mps 760 mmHg 85%
    04:00 +9°C° 0 mm 10 mps 761 mmHg 85%
    05:00 +9°C° 0 mm 10 mps 761 mmHg 85%
    06:00 +10°C° 0 mm 9 mps 761 mmHg 85%
    07:00 +11°C° 0 mm 9 mps 761 mmHg 85%
    08:00 +11°C° 0 mm 9 mps 762 mmHg 85%
    09:00 +11°C° 0 mm 9 mps 762 mmHg 85%
    10:00 +11°C° 0 mm 8 mps 762 mmHg 85%
    11:00 +11°C° 0 mm 8 mps 763 mmHg 85%
    12:00 +11°C° 0 mm 8 mps 763 mmHg 84%
    13:00 +12°C° 0 mm 8 mps 763 mmHg 82%
    14:00 +12°C° 0 mm 8 mps 763 mmHg 80%
    15:00 +12°C° 0 mm 8 mps 764 mmHg 77%
    16:00 +12°C° 0 mm 7 mps 764 mmHg 79%
    17:00 +11°C° 0 mm 7 mps 764 mmHg 81%
    18:00 +11°C° 0 mm 7 mps 765 mmHg 83%
    19:00 +11°C° 0 mm 6 mps 765 mmHg 84%
    20:00 +11°C° 0 mm 6 mps 765 mmHg 85%
    21:00 +11°C° 0 mm 6 mps 765 mmHg 86%
    22:00 +11°C° 0 mm 6 mps 765 mmHg 87%
    23:00 +11°C° 0 mm 7 mps 765 mmHg 87%
    Show more